Regional Weather Roundup
Issued by NWS

Home | Current Version | Previous Version | Graphics & Text | Print | Product List | Glossary On
Versions: 1 2 3 4 5 6 7 8 9 10 11 12 13 14 15 16 17 18 19 20 21 22 23 24 25 26 27 28 29 30 31 32 33 34 35 36 37 38 39 40 41 42 43 44 45 46 47 48 49 50
000
ASUS43 KMPX 201901
RWRMN
WEATHER ROUNDUP FOR MINNESOTA
NATIONAL WEATHER SERVICE TWIN CITIES/CHANHASSEN MN
100 PM CST TUE FEB 20 2018


NOTE: "FAIR" INDICATES FEW OR NO CLOUDS BELOW 12,000 FEET WITH NO
SIGNIFICANT WEATHER AND/OR OBSTRUCTIONS TO VISIBILITY. N/A MEANS
CURRENT SKY AND/OR WEATHER CONDITIONS ARE NOT AVAILABLE.

MNZ060>063-068>070-202000-
   Twin Cities Metro

CITY           SKY/WX    TMP DP  RH WIND       PRES   REMARKS
TWIN CITIES    CLOUDY    20  15  81 W14       29.96R WCI   7
ST PAUL        CLOUDY    19  14  81 NW9       29.97S WCI   8
CRYSTAL        CLOUDY    18  10  71 W12       29.95R WCI   5
BLAINE         CLOUDY    21  14  73 W10       29.95R WCI  10
LAKEVILLE      FLURRIES  19  16  86 W12       29.95R WCI   7
EDEN PRAIRIE   CLOUDY    20  12  71 W13       29.95S WCI   7
SOUTH ST PAUL  CLOUDY    20  15  79 W8        29.95S WCI  11
LAKE ELMO      CLOUDY    19  16  86 NW8       29.95R WCI   9
$$
MNZ001>005-007-008-013>017-022>024-027-028-202000-
   Northwest Minnesota

CITY           SKY/WX    TMP DP  RH WIND       PRES   REMARKS
BEMIDJI        LGT SNOW   9   1  72 W15       29.95F WCI  -8
HALLOCK        FAIR       9   3  78 NW9       30.08S WCI  -5
ROSEAU         CLOUDY     9   3  78 NW8       30.01S HAZE    WCI  -4
WARROAD          N/A      9   1  72 NW9       30.00S HAZE    WCI  -5
THIEF RVR FALL CLOUDY     8   1  73 NW17      30.04S WCI -10
CROOKSTON      CLOUDY     9   3  78 N16       30.09S HAZE    WCI  -9
FOSSTON        PTSUNNY   10   0  61 NW13      30.02R HAZE    WCI  -5
DETROIT LAKES  SNOW       9   3  78 NW17      30.02S VSB 1/2 WCI -10
MOORHEAD       CLOUDY     9   1  72 NW16      30.11S HAZE    WCI  -9
PARK RAPIDS    MIX PCPN  12   5  73 NW16      29.93S WCI  -5
MAHNOMEN       CLOUDY     6   0  76 NW15      30.02S WCI -11
$$
MNZ006-009>011-018-025>026-202000-
   North Central Minnesota

CITY           SKY/WX    TMP DP  RH WIND       PRES   REMARKS
BAUDETTE       LGT SNOW   7   1  76 NW13      29.96S WCI  -9
FLAG ISLAND    LGT SNOW   7   1  78 NW14      29.98S WCI -10
INTL FALLS     LGT SNOW   8   1  73 NW7       29.92R WCI  -3
WASKISH        LGT SNOW  10   5  79 W7        29.97S WCI   0
BIG FORK       FLURRIES  12   3  67 W7        29.90S WCI   2
LONGVILLE      FLURRIES  12   1  62 NW9       29.92S WCI   0
GRAND RAPIDS   FLURRIES  10   4  76 W8        29.91S WCI  -2
CRANE LAKE     LGT SNOW   7   0  72 NW7       29.90F WCI  -5
ORR            LGT SNOW   9  -2  61 NW8       29.86S WCI  -4
COOK           FLURRIES   9   1  72 NW7       29.88S WCI  -3
WALKER         SNOW      11   2  67 NW15G21   29.93F VSB 1/4 WCI  -5
$$
MNZ012-019>021-037-202000-
   Northeast Minnesota

CITY           SKY/WX    TMP DP  RH WIND       PRES   REMARKS
DULUTH         LGT SNOW  10   5  80 NW9       29.86R WCI  -3
ELY            LGT SNOW   7   0  72 CALM      29.85S
HIBBING        LGT SNOW   9   3  77 NW6       29.88R WCI  -1
EVELETH        FLURRIES N/A N/A N/A NW5       29.88R
DULUTH HARBOR  FLURRIES  14   9  79 NW9       29.93F WCI   2
TWO HARBORS    FLURRIES  16   7  67 W5        29.86R WCI   9
G MARAIS ARPRT LGT SNOW   5   0  78 NW6       29.77R WCI  -6
$$
MNZ029>031-032-039>041-046>048-054>057-064-202000-
   West Central Minnesota

CITY           SKY/WX    TMP DP  RH WIND       PRES   REMARKS
FERGUS FALLS   MIX PCPN   9   1  72 NW21      30.06S WCI -11
WHEATON        PTSUNNY    9   1  72 NW18G26   30.11S WCI -10
MORRIS         CLOUDY    10   3  72 NW26G32   30.04R HAZE    WCI -11
ALEXANDRIA     PTSUNNY   13   4  67 NW16      29.98R WCI  -3
ELBOW LAKE     FAIR       8   2  77 W20G29    30.04S HAZE    WCI -12
WADENA         SNOW      10   3  72 NW17      29.97R VSB 1/2 WCI  -7
GLENWOOD       CLOUDY    12   7  79 W20       29.98R WCI  -6
APPLETON       CLOUDY    10   3  72 NW16G26   30.07S HAZE    WCI  -7
BENSON           N/A     10   3  72 N26       30.05S HAZE    WCI -11
ORTONVILLE     CLOUDY    10   3  72 NW22G28   30.08R HAZE    WCI  -9
MADISON          N/A     12   7  79 NW23      30.09R HAZE    WCI  -7
WILLMAR        CLOUDY    10   7  85 NW18      30.04R WCI  -8
$$
MNZ033>034-036-042>043-049>051-058-059-202000-
   Central Minnesota

CITY           SKY/WX    TMP DP  RH WIND       PRES   REMARKS
ST CLOUD       PTSUNNY   16   8  71 NW13      29.95S WCI   2
SAUK CENTRE    FAIR      14   6  69 NW17      29.97R WCI  -3
PAYNESVILLE    FAIR      16   9  74 NW14      29.97F WCI   2
PINE RIVER     CLOUDY    12   3  67 NW8       29.96R WCI   1
BRAINERD       CLOUDY    15   5  64 NW8       29.92F WCI   4
STAPLES        PTSUNNY   14   3  62 NW12      29.96R WCI   0
LONG PRAIRIE   FAIR      18   9  68 W14       29.95S WCI   4
LITTLE FALLS   FAIR      18   1  49 NW8       29.96S WCI   7
LITCHFIELD     PTSUNNY   18  10  73 W12G22    29.97S WCI   5
BUFFALO        PTSUNNY   18  10  69 W12G18    29.97S WCI   6
MAPLE LAKE     PTSUNNY   18  11  71 NW14      29.97S WCI   5
HUTCHINSON     FLURRIES  18  12  76 W17       29.98S WCI   3
$$
MNZ037-044-045-052-053-202000-
   East Central Minnesota

CITY           SKY/WX    TMP DP  RH WIND       PRES   REMARKS
PRINCETON      CLOUDY    19  10  68 W12G17    29.94F WCI   7
MORA           FLURRIES  18   9  68 NW8       29.95R WCI   7
CAMBRIDGE      FLURRIES  18   9  68 W9        29.94F WCI   6
RUSH CITY      FLURRIES  17  10  73 W6        29.94R WCI   9
MOOSE LAKE     FLURRIES  14   7  73 CALM      29.90S
HINCKLEY       FLURRIES  18  10  73 NW5       29.93S WCI  11
CLOQUET        LGT SNOW  10   3  72 NW5       29.88S WCI   2
MCGREGOR       FAIR      18   9  68 NW7       29.91S WCI   8
$$
MNZ071>073-080-081-089-090-097-098-202000-
   Southwest Minnesota

CITY           SKY/WX    TMP DP  RH WIND       PRES   REMARKS
MONTEVIDEO     PTSUNNY   12   3  67 N21       30.07R WCI  -6
GRANITE FALLS  PTSUNNY   13   6  72 W21G28    30.08R WCI  -5
CANBY          FAIR      13   4  69 W15       30.09S WCI  -3
MARSHALL       CLOUDY    11   4  73 NW25G31   30.06R WCI -10
REDWOOD FALLS  LGT SNOW  13   6  74 W17G28    30.03R WCI  -4
OLIVIA         PTSUNNY   14   9  79 NW22G28   30.02R HAZE    WCI  -4
PIPESTONE      FAIR       9   1  72 NW15      30.03S HAZE    WCI  -8
WINDOM         CLOUDY    12  -2  52 CALM      30.01R HAZE
WORTHINGTON    PTSUNNY   13   6  74 NW23      30.02S WCI  -6
JACKSON        PTSUNNY   14   9  79 NW14      30.01R WCI  -1
TRACY          FAIR      11   6  80 NW21      30.04S HAZE    WCI  -7
SLAYTON        FAIR      10   5  77 W21       30.02S HAZE    WCI  -9
$$
MNZ065>067-074>077-082>085-091>093-202000-
   South Central Minnesota

CITY           SKY/WX    TMP DP  RH WIND       PRES   REMARKS
MANKATO        FLURRIES  16  10  77 NW20      30.00R WCI  -1
NEW ULM        FAIR      14   9  79 W17       30.01R WCI  -3
ST JAMES       CLOUDY    12   9  85 W18       30.03R WCI  -5
FAIRMONT       FLURRIES  17  11  77 NW22      30.03R WCI   0
GLENCOE        CLOUDY    18  11  74 W15G21    29.97S WCI   4
FARIBAULT      CLOUDY    19  12  73 W10       29.96S WCI   8
OWATONNA       CLOUDY    19  14  79 CALM      29.95S
WASECA         FLURRIES  19  14  79 W12       29.99S WCI   7
ALBERT LEA     FLURRIES  18  14  86 NW7       29.96R WCI   8
$$
MNZ078>079-086>088-094>096-202000-
   Southeast Minnesota

CITY           SKY/WX    TMP DP  RH WIND       PRES   REMARKS
ROCHESTER      MIX PCPN  20  18  92 W18       29.92R WCI   5
RED WING       CLOUDY    21  16  79 W14       29.94R WCI   8
STANTON        CLOUDY    21  15  78 W9        29.94S WCI  10
DODGE CENTER   CLOUDY    18  14  86 W10       29.93R WCI   6
WINONA         CLOUDY    27  21  80 NW9       29.92R WCI  17
AUSTIN         CLOUDY    19  16  86 W10       29.94R WCI   8
PRESTON        CLOUDY    22  19  88 W13       29.92R WCI  10
$$
ABBREVIATIONS USED IN REMARKS
   TC - TEMPERATURES IN CELSIUS
  WCI - WIND CHILL INDEX
   HX - HEAT INDEX
  VSB - VISIBILITY
$$



USA.gov is the U.S. government's official web portal to all federal, state and local government web resources and services.